Location: Góry Miechowskie
(50.3599°N, 20.1803°E)
Time: 12:05:34
(UTC+00:00)

Vanguard 1 Rocket - Pass Details

Date: 16 September 2024
Orbit: 650 x 4218 km, 34.3° (Epoch: 12 October)

Event Time Altitude Azimuth Distance (km) Brightness Sun altitude
Rises 23:48:16 0° 182° (S) 5,081 - -34.8°
Reaches altitude 10° 23:52:50 10° 164° (SSE) 4,668 - -34.5°
Exits shadow 23:56:57 16° 145° (SE) 4,658 10.7 -34.2°
Maximum altitude 00:00:58 18° 128° (SE) 4,947 11.0 -33.9°
Drops below altitude 10° 00:11:57 10° 94° (E) 6,587 12.0 -33.1°
Sets 00:20:39 0° 80° (E) 8,142 12.8 -32.4°
